Wetterdaten: Freitag, 27.09.2013
Datum Zeit Temperatur Luftfeuchte Luftdruck Regen Wind Richtung Richtung Taupunkt Windchill Windben
27.09.2013 00:03 13,2 C 94 % 1018,9 hPa 0,0 l/m 0,6 km/h (0 Bft) NO 45 12,3 C 13,4 C 0,0 km/h (0 Bft)
27.09.2013 00:08 13,1 C 94 % 1018,9 hPa 0,0 l/m 1,0 km/h (0 Bft) O-NO 67 12,2 C 13,4 C 0,0 km/h (0 Bft)
27.09.2013 00:13 13,1 C 94 % 1018,9 hPa 0,0 l/m 1,3 km/h (1 Bft) N-NO 22 12,2 C 13,4 C 1,8 km/h (1 Bft)
27.09.2013 00:18 13,1 C 94 % 1018,9 hPa 0,0 l/m 1,1 km/h (1 Bft) O-SO 112 12,2 C 13,4 C 0,0 km/h (0 Bft)
27.09.2013 00:23 13,1 C 94 % 1018,9 hPa 0,0 l/m 0,5 km/h (0 Bft) S-SW 202 12,2 C 13,4 C 0,0 km/h (0 Bft)
27.09.2013 00:28 13,1 C 94 % 1018,9 hPa 0,0 l/m 0,5 km/h (0 Bft) NO 45 12,2 C 13,4 C 2,3 km/h (1 Bft)
27.09.2013 00:33 13,1 C 94 % 1018,9 hPa 0,0 l/m 0,3 km/h (0 Bft) SO 135 12,2 C 13,4 C 0,0 km/h (0 Bft)
27.09.2013 00:38 13,1 C 94 % 1018,9 hPa 0,0 l/m 0,5 km/h (0 Bft) O-SO 112 12,2 C 13,3 C 0,0 km/h (0 Bft)
27.09.2013 00:43 13,0 C 94 % 1019,0 hPa 0,0 l/m 0,2 km/h (0 Bft) S-SW 202 12,1 C 13,3 C 0,0 km/h (0 Bft)
27.09.2013 00:48 13,0 C 94 % 1019,0 hPa 0,0 l/m 0,0 km/h (0 Bft) SW 225 12,1 C 13,3 C 0,0 km/h (0 Bft)
27.09.2013 00:53 13,0 C 95 % 1019,0 hPa 0,0 l/m 0,0 km/h (0 Bft) S 180 12,2 C 13,3 C 0,0 km/h (0 Bft)
27.09.2013 00:58 13,0 C 94 % 1019,0 hPa 0,0 l/m 0,2 km/h (0 Bft) NO 45 12,1 C 13,3 C 0,0 km/h (0 Bft)
27.09.2013 01:03 12,9 C 95 % 1019,1 hPa 0,0 l/m 0,2 km/h (0 Bft) O-NO 67 12,1 C 13,3 C 0,0 km/h (0 Bft)
27.09.2013 01:08 12,9 C 95 % 1019,1 hPa 0,0 l/m 0,0 km/h (0 Bft) O-SO 112 12,1 C 13,2 C 0,0 km/h (0 Bft)
27.09.2013 01:13 12,9 C 95 % 1019,1 hPa 0,0 l/m 0,3 km/h (0 Bft) S-SO 157 12,1 C 13,2 C 0,0 km/h (0 Bft)
27.09.2013 01:18 12,9 C 95 % 1019,1 hPa 0,0 l/m 0,3 km/h (0 Bft) S-SO 157 12,1 C 13,2 C 1,6 km/h (1 Bft)
27.09.2013 01:23 12,8 C 95 % 1018,9 hPa 0,0 l/m 0,2 km/h (0 Bft) S-SO 157 12,0 C 13,1 C 0,0 km/h (0 Bft)
27.09.2013 01:28 12,7 C 95 % 1018,9 hPa 0,0 l/m 0,2 km/h (0 Bft) O-NO 67 11,9 C 13,1 C 0,0 km/h (0 Bft)
27.09.2013 01:33 12,6 C 95 % 1018,9 hPa 0,0 l/m 0,0 km/h (0 Bft) O 90 11,8 C 13,0 C 0,0 km/h (0 Bft)
27.09.2013 01:38 12,6 C 95 % 1018,9 hPa 0,0 l/m 0,0 km/h (0 Bft) NO 45 11,8 C 12,9 C 0,0 km/h (0 Bft)
27.09.2013 01:43 12,5 C 95 % 1018,8 hPa 0,0 l/m 0,2 km/h (0 Bft) SO 135 11,7 C 12,9 C 0,0 km/h (0 Bft)
27.09.2013 01:48 12,5 C 95 % 1018,8 hPa 0,0 l/m 0,2 km/h (0 Bft) O-SO 112 11,7 C 12,9 C 0,0 km/h (0 Bft)
27.09.2013 01:53 12,6 C 95 % 1018,8 hPa 0,0 l/m 0,0 km/h (0 Bft) NO 45 11,8 C 12,8 C 0,0 km/h (0 Bft)
27.09.2013 01:58 12,5 C 95 % 1018,8 hPa 0,0 l/m 0,0 km/h (0 Bft) O 90 11,7 C 12,8 C 0,0 km/h (0 Bft)
27.09.2013 02:03 12,4 C 95 % 1018,4 hPa 0,0 l/m 0,0 km/h (0 Bft) S 180 11,6 C 12,6 C 0,0 km/h (0 Bft)
27.09.2013 02:08 12,2 C 95 % 1018,4 hPa 0,0 l/m 0,0 km/h (0 Bft) S 180 11,4 C 12,6 C 0,0 km/h (0 Bft)
27.09.2013 02:13 12,2 C 95 % 1018,4 hPa 0,0 l/m 0,0 km/h (0 Bft) O-SO 112 11,4 C 12,6 C 0,0 km/h (0 Bft)
27.09.2013 02:18 12,3 C 95 % 1018,4 hPa 0,0 l/m 0,0 km/h (0 Bft) O-SO 112 11,5 C 12,6 C 0,0 km/h (0 Bft)
27.09.2013 02:23 12,4 C 95 % 1018,6 hPa 0,0 l/m 0,0 km/h (0 Bft) S-SO 157 11,6 C 12,6 C 1,8 km/h (1 Bft)
27.09.2013 02:28 12,4 C 95 % 1018,6 hPa 0,0 l/m 0,0 km/h (0 Bft) O-SO 112 11,6 C 12,6 C 0,0 km/h (0 Bft)
27.09.2013 02:33 12,5 C 95 % 1018,6 hPa 0,7 l/m 0,0 km/h (0 Bft) S-SW 202 11,7 C 12,7 C 0,0 km/h (0 Bft)
27.09.2013 02:38 12,5 C 95 % 1018,6 hPa 0,0 l/m 0,0 km/h (0 Bft) NO 45 11,7 C 12,8 C 0,0 km/h (0 Bft)
27.09.2013 02:43 12,5 C 95 % 1018,4 hPa 1,4 l/m 0,0 km/h (0 Bft) N 360 11,7 C 12,8 C 1,6 km/h (1 Bft)
27.09.2013 02:48 12,5 C 95 % 1018,4 hPa 0,0 l/m 0,3 km/h (0 Bft) O-SO 112 11,7 C 12,8 C 0,0 km/h (0 Bft)
27.09.2013 02:53 12,5 C 95 % 1018,4 hPa 0,0 l/m 0,6 km/h (0 Bft) SO 135 11,7 C 12,8 C 1,6 km/h (1 Bft)
27.09.2013 02:58 12,5 C 95 % 1018,4 hPa 0,0 l/m 1,3 km/h (1 Bft) SO 135 11,7 C 12,8 C 1,8 km/h (1 Bft)
27.09.2013 03:03 12,5 C 95 % 1018,4 hPa 0,0 l/m 1,0 km/h (0 Bft) SO 135 11,7 C 12,8 C 0,0 km/h (0 Bft)
27.09.2013 03:08 12,6 C 95 % 1018,4 hPa 0,0 l/m 0,2 km/h (0 Bft) SO 135 11,8 C 12,8 C 0,0 km/h (0 Bft)
27.09.2013 03:13 12,5 C 95 % 1018,4 hPa 0,0 l/m 0,0 km/h (0 Bft) SO 135 11,7 C 12,9 C 0,0 km/h (0 Bft)
27.09.2013 03:18 12,6 C 95 % 1018,4 hPa 0,0 l/m 0,0 km/h (0 Bft) SO 135 11,8 C 12,9 C 0,0 km/h (0 Bft)
27.09.2013 03:23 12,6 C 95 % 1018,4 hPa 0,0 l/m 0,0 km/h (0 Bft) SO 135 11,8 C 12,9 C 0,0 km/h (0 Bft)
27.09.2013 03:28 12,6 C 95 % 1018,4 hPa 0,0 l/m 0,0 km/h (0 Bft) SO 135 11,8 C 12,9 C 0,0 km/h (0 Bft)
27.09.2013 03:33 12,6 C 95 % 1018,4 hPa 0,0 l/m 0,0 km/h (0 Bft) SO 135 11,8 C 12,9 C 0,0 km/h (0 Bft)
27.09.2013 03:38 12,6 C 95 % 1018,4 hPa 0,0 l/m 0,0 km/h (0 Bft) SO 135 11,8 C 12,9 C 0,0 km/h (0 Bft)
27.09.2013 03:43 12,5 C 96 % 1018,2 hPa 0,0 l/m 0,0 km/h (0 Bft) SO 135 11,9 C 12,8 C 0,0 km/h (0 Bft)
27.09.2013 03:48 12,4 C 95 % 1018,2 hPa 0,0 l/m 0,0 km/h (0 Bft) SO 135 11,6 C 12,6 C 0,0 km/h (0 Bft)
27.09.2013 03:53 12,1 C 95 % 1018,2 hPa 0,0 l/m 0,0 km/h (0 Bft) SO 135 11,3 C 12,4 C 0,0 km/h (0 Bft)
27.09.2013 03:58 12,0 C 95 % 1018,2 hPa 0,0 l/m 0,0 km/h (0 Bft) SO 135 11,2 C 12,4 C 0,0 km/h (0 Bft)
27.09.2013 04:03 12,0 C 95 % 1018,1 hPa 0,0 l/m 0,0 km/h (0 Bft) S 180 11,2 C 12,3 C 0,0 km/h (0 Bft)
27.09.2013 04:08 12,0 C 95 % 1018,1 hPa 0,0 l/m 0,0 km/h (0 Bft) O-SO 112 11,2 C 12,4 C 0,0 km/h (0 Bft)
27.09.2013 04:13 12,1 C 95 % 1018,1 hPa 0,0 l/m 0,0 km/h (0 Bft) O-SO 112 11,3 C 12,4 C 0,0 km/h (0 Bft)
27.09.2013 04:18 12,1 C 95 % 1018,1 hPa 0,0 l/m 0,0 km/h (0 Bft) O-SO 112 11,3 C 12,4 C 0,0 km/h (0 Bft)
27.09.2013 04:23 12,1 C 95 % 1018,1 hPa 0,0 l/m 0,0 km/h (0 Bft) W-SW 247 11,3 C 12,3 C 0,0 km/h (0 Bft)
27.09.2013 04:28 12,0 C 95 % 1018,1 hPa 0,0 l/m 0,0 km/h (0 Bft) S 180 11,2 C 12,3 C 0,0 km/h (0 Bft)
27.09.2013 04:33 12,0 C 95 % 1018,1 hPa 0,0 l/m 0,2 km/h (0 Bft) SO 135 11,2 C 12,3 C 0,0 km/h (0 Bft)
27.09.2013 04:38 12,0 C 95 % 1018,1 hPa 0,0 l/m 0,2 km/h (0 Bft) N-NO 22 11,2 C 12,3 C 0,0 km/h (0 Bft)
27.09.2013 04:43 12,1 C 95 % 1017,8 hPa 0,0 l/m 0,2 km/h (0 Bft) S-SW 202 11,3 C 12,4 C 0,0 km/h (0 Bft)
27.09.2013 04:48 12,1 C 95 % 1017,8 hPa 0,0 l/m 0,6 km/h (0 Bft) S 180 11,3 C 12,4 C 0,0 km/h (0 Bft)
27.09.2013 04:53 12,1 C 95 % 1017,8 hPa 0,0 l/m 0,5 km/h (0 Bft) W-SW 247 11,3 C 12,4 C 1,8 km/h (1 Bft)
27.09.2013 04:58 12,2 C 95 % 1017,8 hPa 0,0 l/m 0,2 km/h (0 Bft) O 90 11,4 C 12,4 C 0,0 km/h (0 Bft)
27.09.2013 05:03 12,2 C 95 % 1017,8 hPa 0,0 l/m 0,0 km/h (0 Bft) NO 45 11,4 C 12,4 C 0,0 km/h (0 Bft)
27.09.2013 05:08 12,2 C 95 % 1017,8 hPa 0,0 l/m 0,0 km/h (0 Bft) NO 45 11,4 C 12,4 C 0,0 km/h (0 Bft)
27.09.2013 05:13 12,1 C 95 % 1017,8 hPa 0,0 l/m 0,0 km/h (0 Bft) NO 45 11,3 C 12,4 C 0,0 km/h (0 Bft)
27.09.2013 05:18 12,2 C 95 % 1017,8 hPa 0,0 l/m 0,0 km/h (0 Bft) O-SO 112 11,4 C 12,4 C 0,0 km/h (0 Bft)
27.09.2013 05:23 12,1 C 95 % 1017,6 hPa 0,0 l/m 0,0 km/h (0 Bft) O 90 11,3 C 12,4 C 0,0 km/h (0 Bft)
27.09.2013 05:28 12,1 C 95 % 1017,6 hPa 0,0 l/m 0,0 km/h (0 Bft) O 90 11,3 C 12,3 C 0,0 km/h (0 Bft)
27.09.2013 05:33 12,1 C 96 % 1017,6 hPa 0,0 l/m 0,3 km/h (0 Bft) O-NO 67 11,5 C 12,3 C 1,9 km/h (1 Bft)
27.09.2013 05:38 12,2 C 95 % 1017,6 hPa 0,0 l/m 0,3 km/h (0 Bft) O 90 11,4 C 12,4 C 0,0 km/h (0 Bft)
27.09.2013 05:43 12,2 C 95 % 1017,6 hPa 0,0 l/m 0,5 km/h (0 Bft) O 90 11,4 C 12,4 C 0,0 km/h (0 Bft)
27.09.2013 05:48 12,1 C 95 % 1017,6 hPa 0,0 l/m 0,3 km/h (0 Bft) O 90 11,3 C 12,4 C 0,0 km/h (0 Bft)
27.09.2013 05:53 12,0 C 96 % 1017,6 hPa 0,0 l/m 0,0 km/h (0 Bft) O 90 11,4 C 12,3 C 0,0 km/h (0 Bft)
27.09.2013 05:58 12,0 C 95 % 1017,6 hPa 0,0 l/m 0,0 km/h (0 Bft) O-SO 112 11,2 C 12,3 C 0,0 km/h (0 Bft)
27.09.2013 06:03 11,9 C 96 % 1017,6 hPa 0,0 l/m 0,0 km/h (0 Bft) W-NW 292 11,3 C 12,2 C 0,0 km/h (0 Bft)
27.09.2013 06:08 11,9 C 96 % 1017,6 hPa 0,0 l/m 0,0 km/h (0 Bft) W-NW 292 11,3 C 12,1 C 0,0 km/h (0 Bft)
27.09.2013 06:13 11,9 C 96 % 1017,6 hPa 0,0 l/m 0,0 km/h (0 Bft) W-NW 292 11,3 C 12,1 C 0,0 km/h (0 Bft)
27.09.2013 06:18 11,8 C 96 % 1017,6 hPa 0,0 l/m 0,0 km/h (0 Bft) W-NW 292 11,2 C 12,1 C 0,0 km/h (0 Bft)
27.09.2013 06:23 11,9 C 96 % 1017,5 hPa 0,0 l/m 0,0 km/h (0 Bft) S 180 11,3 C 12,1 C 0,0 km/h (0 Bft)
27.09.2013 06:28 11,9 C 96 % 1017,5 hPa 0,0 l/m 0,0 km/h (0 Bft) S 180 11,3 C 12,1 C 0,0 km/h (0 Bft)
27.09.2013 06:33 11,9 C 96 % 1017,5 hPa 0,0 l/m 0,2 km/h (0 Bft) N-NO 22 11,3 C 12,2 C 2,7 km/h (1 Bft)
27.09.2013 06:38 12,0 C 96 % 1017,5 hPa 0,0 l/m 0,8 km/h (0 Bft) O 90 11,4 C 12,2 C 1,6 km/h (1 Bft)
27.09.2013 06:43 11,8 C 96 % 1017,6 hPa 0,0 l/m 1,3 km/h (1 Bft) S 180 11,2 C 12,1 C 0,0 km/h (0 Bft)
27.09.2013 06:48 11,8 C 96 % 1017,6 hPa 0,0 l/m 0,5 km/h (0 Bft) SW 225 11,2 C 12,1 C 0,0 km/h (0 Bft)
27.09.2013 06:53 11,6 C 96 % 1017,6 hPa 0,0 l/m 0,0 km/h (0 Bft) S-SO 157 11,0 C 12,0 C 0,0 km/h (0 Bft)
27.09.2013 06:58 11,7 C 96 % 1017,6 hPa 0,0 l/m 0,0 km/h (0 Bft) S-SO 157 11,1 C 12,0 C 0,0 km/h (0 Bft)
27.09.2013 07:03 11,8 C 96 % 1017,8 hPa 0,0 l/m 0,2 km/h (0 Bft) NO 45 11,2 C 12,0 C 1,6 km/h (1 Bft)
27.09.2013 07:08 11,7 C 96 % 1017,8 hPa 0,0 l/m 0,2 km/h (0 Bft) SO 135 11,1 C 11,9 C 0,0 km/h (0 Bft)
27.09.2013 07:13 11,6 C 96 % 1017,8 hPa 0,0 l/m 0,0 km/h (0 Bft) O-NO 67 11,0 C 11,9 C 0,0 km/h (0 Bft)
27.09.2013 07:18 11,5 C 96 % 1017,8 hPa 0,0 l/m 0,0 km/h (0 Bft) O 90 10,9 C 11,7 C 0,0 km/h (0 Bft)
27.09.2013 07:23 11,4 C 96 % 1017,9 hPa 0,0 l/m 0,0 km/h (0 Bft) O-NO 67 10,8 C 11,6 C 0,0 km/h (0 Bft)
27.09.2013 07:28 11,3 C 96 % 1017,9 hPa 0,0 l/m 0,0 km/h (0 Bft) O 90 10,7 C 11,4 C 0,0 km/h (0 Bft)
27.09.2013 07:33 11,2 C 96 % 1017,9 hPa 0,0 l/m 0,0 km/h (0 Bft) O 90 10,6 C 11,4 C 0,0 km/h (0 Bft)
27.09.2013 07:38 11,2 C 96 % 1017,9 hPa 0,0 l/m 0,0 km/h (0 Bft) O-SO 112 10,6 C 11,3 C 0,0 km/h (0 Bft)
27.09.2013 07:43 11,3 C 96 % 1017,6 hPa 0,0 l/m 0,2 km/h (0 Bft) SO 135 10,7 C 11,4 C 0,0 km/h (0 Bft)
27.09.2013 07:48 11,5 C 96 % 1017,6 hPa 0,0 l/m 0,2 km/h (0 Bft) S 180 10,9 C 11,7 C 0,0 km/h (0 Bft)
27.09.2013 07:53 11,8 C 96 % 1017,6 hPa 0,0 l/m 0,0 km/h (0 Bft) NO 45 11,2 C 12,0 C 0,0 km/h (0 Bft)
27.09.2013 07:58 11,9 C 96 % 1017,6 hPa 0,0 l/m 0,0 km/h (0 Bft) NO 45 11,3 C 12,1 C 0,0 km/h (0 Bft)
27.09.2013 08:03 12,0 C 96 % 1017,8 hPa 0,0 l/m 0,0 km/h (0 Bft) W-NW 292 11,4 C 12,4 C 0,0 km/h (0 Bft)
27.09.2013 08:08 12,0 C 96 % 1017,8 hPa 0,0 l/m 0,0 km/h (0 Bft) N-NO 22 11,4 C 12,4 C 0,0 km/h (0 Bft)
27.09.2013 08:13 12,1 C 96 % 1017,8 hPa 0,0 l/m 0,0 km/h (0 Bft) NO 45 11,5 C 12,4 C 0,0 km/h (0 Bft)
27.09.2013 08:18 12,1 C 96 % 1017,8 hPa 0,0 l/m 0,0 km/h (0 Bft) NO 45 11,5 C 12,4 C 0,0 km/h (0 Bft)
27.09.2013 08:23 12,3 C 96 % 1018,0 hPa 0,0 l/m 0,0 km/h (0 Bft) NO 45 11,7 C 12,6 C 0,0 km/h (0 Bft)
27.09.2013 08:28 12,5 C 96 % 1018,0 hPa 0,0 l/m 0,0 km/h (0 Bft) N 360 11,9 C 12,8 C 0,0 km/h (0 Bft)
27.09.2013 08:33 12,7 C 96 % 1018,0 hPa 0,0 l/m 0,2 km/h (0 Bft) N 360 12,1 C 12,9 C 0,0 km/h (0 Bft)
27.09.2013 08:38 12,8 C 96 % 1018,0 hPa 0,0 l/m 0,2 km/h (0 Bft) N-NW 337 12,2 C 13,1 C 0,0 km/h (0 Bft)
27.09.2013 08:43 12,8 C 96 % 1017,8 hPa 0,0 l/m 0,0 km/h (0 Bft) W-NW 292 12,2 C 13,2 C 0,0 km/h (0 Bft)
27.09.2013 08:48 12,7 C 96 % 1017,8 hPa 0,0 l/m 0,0 km/h (0 Bft) W-NW 292 12,1 C 13,2 C 0,0 km/h (0 Bft)
27.09.2013 08:53 12,8 C 96 % 1017,8 hPa 0,0 l/m 0,0 km/h (0 Bft) W-NW 292 12,2 C 13,3 C 0,0 km/h (0 Bft)
27.09.2013 08:58 13,0 C 95 % 1017,8 hPa 0,0 l/m 0,0 km/h (0 Bft) W-NW 292 12,2 C 13,3 C 0,0 km/h (0 Bft)
27.09.2013 09:03 12,8 C 96 % 1017,9 hPa 0,0 l/m 0,3 km/h (0 Bft) W-NW 292 12,2 C 13,3 C 0,0 km/h (0 Bft)
27.09.2013 09:08 12,8 C 96 % 1017,9 hPa 0,0 l/m 0,3 km/h (0 Bft) N-NW 337 12,2 C 13,2 C 0,0 km/h (0 Bft)
27.09.2013 09:13 12,7 C 96 % 1017,9 hPa 0,0 l/m 0,0 km/h (0 Bft) NW 315 12,1 C 13,2 C 0,0 km/h (0 Bft)
27.09.2013 09:18 12,9 C 96 % 1017,9 hPa 0,0 l/m 0,0 km/h (0 Bft) W-NW 292 12,3 C 13,3 C 0,0 km/h (0 Bft)
27.09.2013 09:23 13,0 C 95 % 1017,9 hPa 0,0 l/m 0,0 km/h (0 Bft) W-NW 292 12,2 C 13,4 C 0,0 km/h (0 Bft)
27.09.2013 09:28 13,1 C 95 % 1017,9 hPa 0,0 l/m 0,0 km/h (0 Bft) W-NW 292 12,3 C 13,5 C 0,0 km/h (0 Bft)
27.09.2013 09:33 13,0 C 95 % 1017,9 hPa 0,7 l/m 0,0 km/h (0 Bft) W 270 12,2 C 13,4 C 0,0 km/h (0 Bft)
27.09.2013 09:38 13,1 C 95 % 1017,9 hPa 0,0 l/m 0,0 km/h (0 Bft) S-SO 157 12,3 C 13,4 C 0,0 km/h (0 Bft)
27.09.2013 09:43 13,0 C 95 % 1017,9 hPa 0,0 l/m 0,0 km/h (0 Bft) S-SO 157 12,2 C 13,4 C 0,0 km/h (0 Bft)
27.09.2013 09:48 13,0 C 95 % 1017,9 hPa 0,0 l/m 0,0 km/h (0 Bft) S-SW 202 12,2 C 13,4 C 0,0 km/h (0 Bft)
27.09.2013 09:53 13,0 C 95 % 1017,9 hPa 0,7 l/m 0,3 km/h (0 Bft) W-NW 292 12,2 C 13,3 C 0,0 km/h (0 Bft)
27.09.2013 09:58 12,9 C 96 % 1017,9 hPa 0,0 l/m 0,3 km/h (0 Bft) W-NW 292 12,3 C 13,3 C 0,0 km/h (0 Bft)
27.09.2013 10:03 12,9 C 96 % 1017,8 hPa 0,7 l/m 0,0 km/h (0 Bft) O 90 12,3 C 13,3 C 0,0 km/h (0 Bft)
27.09.2013 10:08 13,1 C 95 % 1017,8 hPa 0,0 l/m 0,0 km/h (0 Bft) O-SO 112 12,3 C 13,3 C 0,0 km/h (0 Bft)
27.09.2013 10:13 13,5 C 95 % 1017,8 hPa 0,0 l/m 0,0 km/h (0 Bft) O 90 12,7 C 13,7 C 1,8 km/h (1 Bft)
27.09.2013 10:18 13,7 C 95 % 1017,8 hPa 0,0 l/m 0,8 km/h (0 Bft) S 180 12,9 C 13,9 C 0,0 km/h (0 Bft)
27.09.2013 10:23 13,6 C 95 % 1018,0 hPa 0,0 l/m 1,3 km/h (1 Bft) S-SO 157 12,8 C 13,9 C 0,0 km/h (0 Bft)
27.09.2013 10:28 13,6 C 95 % 1018,0 hPa 0,7 l/m 0,8 km/h (0 Bft) S 180 12,8 C 13,9 C 1,8 km/h (1 Bft)
27.09.2013 10:33 13,4 C 95 % 1018,0 hPa 0,0 l/m 1,1 km/h (1 Bft) NO 45 12,6 C 13,7 C 2,4 km/h (1 Bft)
27.09.2013 10:38 13,4 C 95 % 1018,0 hPa 0,7 l/m 1,1 km/h (1 Bft) N 360 12,6 C 13,7 C 0,0 km/h (0 Bft)
27.09.2013 10:43 13,5 C 95 % 1017,9 hPa 0,0 l/m 0,3 km/h (0 Bft) N 360 12,7 C 13,9 C 0,0 km/h (0 Bft)
27.09.2013 10:48 13,7 C 95 % 1017,9 hPa 0,0 l/m 0,0 km/h (0 Bft) NW 315 12,9 C 14,0 C 0,0 km/h (0 Bft)
27.09.2013 10:53 13,8 C 95 % 1017,9 hPa 0,0 l/m 0,0 km/h (0 Bft) N 360 13,0 C 14,3 C 0,0 km/h (0 Bft)
27.09.2013 10:58 13,9 C 95 % 1017,9 hPa 0,0 l/m 0,0 km/h (0 Bft) N-NO 22 13,1 C 14,3 C 0,0 km/h (0 Bft)
27.09.2013 11:03 14,4 C 95 % 1017,8 hPa 0,0 l/m 0,0 km/h (0 Bft) S 180 13,6 C 14,7 C 0,0 km/h (0 Bft)
27.09.2013 11:08 14,7 C 95 % 1017,8 hPa 0,0 l/m 0,2 km/h (0 Bft) S 180 13,9 C 15,2 C 2,4 km/h (1 Bft)
27.09.2013 11:13 15,2 C 95 % 1017,8 hPa 0,0 l/m 0,5 km/h (0 Bft) S 180 14,4 C 15,6 C 0,0 km/h (0 Bft)
27.09.2013 11:18 15,5 C 95 % 1017,8 hPa 0,0 l/m 0,5 km/h (0 Bft) S-SO 157 14,7 C 15,9 C 1,9 km/h (1 Bft)
27.09.2013 11:23 15,4 C 95 % 1018,0 hPa 0,0 l/m 0,5 km/h (0 Bft) O-NO 67 14,6 C 16,4 C 0,0 km/h (0 Bft)
27.09.2013 11:28 15,6 C 95 % 1018,0 hPa 0,0 l/m 0,3 km/h (0 Bft) SO 135 14,8 C 16,8 C 0,0 km/h (0 Bft)
27.09.2013 11:33 16,5 C 94 % 1018,0 hPa 0,0 l/m 0,5 km/h (0 Bft) O 90 15,5 C 17,7 C 0,0 km/h (0 Bft)
27.09.2013 11:38 16,6 C 94 % 1018,0 hPa 0,0 l/m 0,6 km/h (0 Bft) SO 135 15,6 C 18,4 C 1,6 km/h (1 Bft)
27.09.2013 11:43 16,4 C 93 % 1018,2 hPa 0,0 l/m 1,1 km/h (1 Bft) S 180 15,3 C 18,4 C 0,0 km/h (0 Bft)
27.09.2013 11:48 16,9 C 93 % 1018,2 hPa 0,0 l/m 1,1 km/h (1 Bft) S 180 15,8 C 18,6 C 0,0 km/h (0 Bft)
27.09.2013 11:53 17,1 C 93 % 1018,2 hPa 0,0 l/m 1,4 km/h (1 Bft) S 180 16,0 C 19,1 C 2,6 km/h (1 Bft)
27.09.2013 11:58 17,4 C 93 % 1018,2 hPa 0,0 l/m 2,6 km/h (1 Bft) S 180 16,3 C 19,2 C 5,0 km/h (1 Bft)
27.09.2013 12:03 17,2 C 93 % 1018,4 hPa 0,0 l/m 1,9 km/h (1 Bft) SO 135 16,1 C 19,3 C 0,0 km/h (0 Bft)
27.09.2013 12:08 17,2 C 93 % 1018,4 hPa 0,0 l/m 1,4 km/h (1 Bft) SW 225 16,1 C 19,6 C 3,7 km/h (1 Bft)
27.09.2013 12:13 16,8 C 93 % 1018,4 hPa 0,0 l/m 3,4 km/h (1 Bft) S-SO 157 15,7 C 19,1 C 8,2 km/h (2 Bft)
27.09.2013 12:18 16,6 C 92 % 1018,4 hPa 0,0 l/m 4,5 km/h (1 Bft) W-SW 247 15,3 C 18,8 C 5,5 km/h (1 Bft)
27.09.2013 12:23 16,9 C 92 % 1018,5 hPa 0,0 l/m 4,0 km/h (1 Bft) W 270 15,6 C 18,6 C 5,5 km/h (1 Bft)
27.09.2013 12:28 16,9 C 92 % 1018,5 hPa 0,0 l/m 3,9 km/h (1 Bft) S 180 15,6 C 18,6 C 6,1 km/h (2 Bft)
27.09.2013 12:33 17,1 C 91 % 1018,5 hPa 0,0 l/m 4,5 km/h (1 Bft) W-SW 247 15,6 C 18,7 C 4,7 km/h (1 Bft)
27.09.2013 12:38 17,0 C 90 % 1018,5 hPa 0,0 l/m 4,3 km/h (1 Bft) S 180 15,3 C 18,8 C 3,4 km/h (1 Bft)
27.09.2013 12:43 16,9 C 90 % 1018,6 hPa 0,0 l/m 4,5 km/h (1 Bft) S-SW 202 15,2 C 18,5 C 4,8 km/h (1 Bft)
27.09.2013 12:48 16,7 C 90 % 1018,6 hPa 0,0 l/m 4,3 km/h (1 Bft) S 180 15,0 C 18,3 C 4,7 km/h (1 Bft)
27.09.2013 12:53 16,7 C 90 % 1018,6 hPa 0,0 l/m 4,0 km/h (1 Bft) S-SO 157 15,0 C 18,2 C 5,8 km/h (2 Bft)
27.09.2013 12:58 16,7 C 90 % 1018,6 hPa 0,0 l/m 4,3 km/h (1 Bft) W-SW 247 15,0 C 18,1 C 3,1 km/h (1 Bft)
27.09.2013 13:03 17,1 C 90 % 1018,1 hPa 0,0 l/m 2,9 km/h (1 Bft) N-NO 22 15,4 C 18,3 C 2,1 km/h (1 Bft)
27.09.2013 13:08 16,9 C 90 % 1018,1 hPa 0,0 l/m 1,9 km/h (1 Bft) W-SW 247 15,2 C 18,4 C 3,9 km/h (1 Bft)
27.09.2013 13:13 16,8 C 90 % 1018,1 hPa 0,0 l/m 1,9 km/h (1 Bft) W 270 15,1 C 18,5 C 3,4 km/h (1 Bft)
27.09.2013 13:18 16,7 C 90 % 1018,1 hPa 0,0 l/m 1,9 km/h (1 Bft) W-NW 292 15,0 C 18,3 C 2,7 km/h (1 Bft)
27.09.2013 13:23 17,0 C 90 % 1017,9 hPa 0,0 l/m 2,7 km/h (1 Bft) S-SW 202 15,3 C 18,3 C 2,7 km/h (1 Bft)
27.09.2013 13:28 17,3 C 90 % 1017,9 hPa 0,0 l/m 1,9 km/h (1 Bft) S-SW 202 15,6 C 18,3 C 0,0 km/h (0 Bft)
27.09.2013 13:33 17,2 C 90 % 1017,9 hPa 0,0 l/m 1,8 km/h (1 Bft) W 270 15,5 C 18,5 C 4,8 km/h (1 Bft)
27.09.2013 13:38 17,0 C 90 % 1017,9 hPa 0,0 l/m 1,6 km/h (1 Bft) S 180 15,3 C 18,3 C 1,8 km/h (1 Bft)
27.09.2013 13:43 17,0 C 90 % 1017,9 hPa 0,0 l/m 1,9 km/h (1 Bft) O 90 15,3 C 18,3 C 0,0 km/h (0 Bft)
27.09.2013 13:48 16,7 C 90 % 1017,9 hPa 0,0 l/m 2,1 km/h (1 Bft) S-SW 202 15,0 C 18,3 C 6,1 km/h (2 Bft)
27.09.2013 13:53 16,5 C 90 % 1017,9 hPa 0,0 l/m 4,3 km/h (1 Bft) W 270 14,9 C 17,9 C 3,2 km/h (1 Bft)
27.09.2013 13:58 16,5 C 90 % 1017,9 hPa 0,0 l/m 5,8 km/h (2 Bft) W-SW 247 14,9 C 17,7 C 7,9 km/h (2 Bft)
27.09.2013 14:03 16,3 C 90 % 1018,0 hPa 0,0 l/m 4,2 km/h (1 Bft) N 360 14,7 C 17,3 C 3,2 km/h (1 Bft)
27.09.2013 14:08 16,1 C 90 % 1018,0 hPa 0,0 l/m 4,3 km/h (1 Bft) W-SW 247 14,5 C 17,1 C 1,9 km/h (1 Bft)
27.09.2013 14:13 16,4 C 90 % 1018,0 hPa 0,0 l/m 2,9 km/h (1 Bft) N-NW 337 14,8 C 17,1 C 3,2 km/h (1 Bft)
27.09.2013 14:18 16,3 C 90 % 1018,0 hPa 0,0 l/m 2,4 km/h (1 Bft) W 270 14,7 C 17,2 C 3,5 km/h (1 Bft)
27.09.2013 14:23 16,4 C 90 % 1017,8 hPa 0,0 l/m 3,1 km/h (1 Bft) W-NW 292 14,8 C 17,2 C 2,6 km/h (1 Bft)
27.09.2013 14:28 16,4 C 90 % 1017,8 hPa 0,0 l/m 2,6 km/h (1 Bft) W-NW 292 14,8 C 17,3 C 2,3 km/h (1 Bft)
27.09.2013 14:33 15,8 C 92 % 1017,8 hPa 0,0 l/m 1,9 km/h (1 Bft) NW 315 14,5 C 17,1 C 3,2 km/h (1 Bft)
27.09.2013 14:38 15,6 C 92 % 1017,8 hPa 0,0 l/m 2,3 km/h (1 Bft) N 360 14,3 C 16,7 C 2,3 km/h (1 Bft)
27.09.2013 14:43 15,3 C 92 % 1017,8 hPa 0,0 l/m 2,9 km/h (1 Bft) W-NW 292 14,0 C 16,2 C 4,5 km/h (1 Bft)
27.09.2013 14:48 15,1 C 92 % 1017,8 hPa 0,0 l/m 2,9 km/h (1 Bft) N-NW 337 13,8 C 15,9 C 2,6 km/h (1 Bft)
27.09.2013 14:53 15,0 C 92 % 1017,8 hPa 0,0 l/m 2,6 km/h (1 Bft) W-NW 292 13,7 C 15,7 C 2,4 km/h (1 Bft)
27.09.2013 14:58 15,1 C 92 % 1017,8 hPa 0,0 l/m 2,3 km/h (1 Bft) N 360 13,8 C 15,7 C 5,6 km/h (1 Bft)
27.09.2013 15:03 14,8 C 92 % 1017,9 hPa 0,0 l/m 2,6 km/h (1 Bft) N-NW 337 13,5 C 15,5 C 5,3 km/h (1 Bft)
27.09.2013 15:08 14,7 C 92 % 1017,9 hPa 0,0 l/m 3,2 km/h (1 Bft) N 360 13,4 C 15,4 C 5,8 km/h (2 Bft)
27.09.2013 15:13 14,5 C 93 % 1017,9 hPa 0,0 l/m 3,1 km/h (1 Bft) N 360 13,4 C 15,1 C 4,3 km/h (1 Bft)
27.09.2013 15:18 14,4 C 93 % 1017,9 hPa 0,0 l/m 3,4 km/h (1 Bft) W-NW 292 13,3 C 15,0 C 3,1 km/h (1 Bft)
27.09.2013 15:23 14,4 C 93 % 1017,9 hPa 0,0 l/m 3,2 km/h (1 Bft) N 360 13,3 C 14,9 C 3,7 km/h (1 Bft)
27.09.2013 15:28 14,4 C 93 % 1017,9 hPa 0,0 l/m 3,1 km/h (1 Bft) NO 45 13,3 C 14,8 C 4,7 km/h (1 Bft)
27.09.2013 15:33 14,4 C 93 % 1017,9 hPa 0,0 l/m 2,7 km/h (1 Bft) N-NW 337 13,3 C 14,9 C 0,0 km/h (0 Bft)
27.09.2013 15:38 14,3 C 93 % 1017,9 hPa 0,0 l/m 2,4 km/h (1 Bft) N 360 13,2 C 14,9 C 5,8 km/h (2 Bft)
27.09.2013 15:43 14,2 C 93 % 1017,8 hPa 0,0 l/m 2,3 km/h (1 Bft) N 360 13,1 C 14,7 C 2,1 km/h (1 Bft)
27.09.2013 15:48 14,1 C 93 % 1017,8 hPa 0,0 l/m 2,6 km/h (1 Bft) N 360 13,0 C 14,7 C 4,3 km/h (1 Bft)
27.09.2013 15:53 13,9 C 93 % 1017,8 hPa 0,0 l/m 2,9 km/h (1 Bft) SO 135 12,8 C 14,5 C 0,0 km/h (0 Bft)
27.09.2013 15:58 13,9 C 93 % 1017,8 hPa 0,0 l/m 3,1 km/h (1 Bft) N-NW 337 12,8 C 14,4 C 3,9 km/h (1 Bft)
27.09.2013 16:03 13,8 C 93 % 1017,8 hPa 0,0 l/m 1,3 km/h (1 Bft) N-NO 22 12,7 C 14,3 C 2,4 km/h (1 Bft)
27.09.2013 16:08 13,8 C 93 % 1017,8 hPa 0,0 l/m 1,1 km/h (1 Bft) N-NO 22 12,7 C 14,3 C 2,4 km/h (1 Bft)
27.09.2013 16:13 13,8 C 94 % 1017,8 hPa 0,0 l/m 2,3 km/h (1 Bft) N 360 12,9 C 14,3 C 4,2 km/h (1 Bft)
27.09.2013 16:18 13,8 C 94 % 1017,8 hPa 0,0 l/m 2,4 km/h (1 Bft) N-NO 22 12,9 C 14,2 C 0,0 km/h (0 Bft)
27.09.2013 16:23 13,8 C 94 % 1017,6 hPa 0,0 l/m 1,6 km/h (1 Bft) N-NO 22 12,9 C 14,1 C 0,0 km/h (0 Bft)
27.09.2013 16:28 13,7 C 94 % 1017,6 hPa 0,0 l/m 1,6 km/h (1 Bft) W 270 12,8 C 14,1 C 2,9 km/h (1 Bft)
27.09.2013 16:33 13,8 C 94 % 1017,6 hPa 0,0 l/m 1,3 km/h (1 Bft) N-NW 337 12,9 C 14,0 C 2,3 km/h (1 Bft)
27.09.2013 16:38 13,8 C 94 % 1017,6 hPa 0,0 l/m 1,1 km/h (1 Bft) N-NO 22 12,9 C 14,0 C 3,1 km/h (1 Bft)
27.09.2013 16:43 13,8 C 94 % 1017,7 hPa 0,0 l/m 1,4 km/h (1 Bft) O 90 12,9 C 14,1 C 0,0 km/h (0 Bft)
27.09.2013 16:48 13,8 C 94 % 1017,7 hPa 0,0 l/m 1,3 km/h (1 Bft) N 360 12,9 C 14,2 C 1,9 km/h (1 Bft)
27.09.2013 16:53 14,0 C 94 % 1017,7 hPa 0,0 l/m 0,8 km/h (0 Bft) NO 45 13,0 C 14,3 C 3,1 km/h (1 Bft)
27.09.2013 16:58 13,9 C 94 % 1017,7 hPa 0,0 l/m 0,8 km/h (0 Bft) NO 45 12,9 C 14,4 C 3,7 km/h (1 Bft)
27.09.2013 17:03 13,9 C 94 % 1017,5 hPa 0,0 l/m 1,1 km/h (1 Bft) N 360 12,9 C 14,3 C 0,0 km/h (0 Bft)
27.09.2013 17:08 13,9 C 94 % 1017,5 hPa 0,0 l/m 1,0 km/h (0 Bft) N-NO 22 12,9 C 14,3 C 2,7 km/h (1 Bft)
27.09.2013 17:13 14,0 C 94 % 1017,5 hPa 0,0 l/m 0,2 km/h (0 Bft) W-SW 247 13,0 C 14,3 C 0,0 km/h (0 Bft)
27.09.2013 17:18 14,0 C 94 % 1017,5 hPa 0,0 l/m 0,2 km/h (0 Bft) W 270 13,0 C 14,3 C 0,0 km/h (0 Bft)
27.09.2013 17:23 13,9 C 94 % 1017,4 hPa 0,0 l/m 0,0 km/h (0 Bft) N 360 12,9 C 14,4 C 0,0 km/h (0 Bft)
27.09.2013 17:28 13,9 C 94 % 1017,4 hPa 0,0 l/m 0,0 km/h (0 Bft) W 270 12,9 C 14,4 C 0,0 km/h (0 Bft)
27.09.2013 17:33 14,0 C 94 % 1017,4 hPa 0,0 l/m 0,0 km/h (0 Bft) N 360 13,0 C 14,4 C 0,0 km/h (0 Bft)
27.09.2013 17:38 14,0 C 94 % 1017,4 hPa 0,0 l/m 0,0 km/h (0 Bft) N-NW 337 13,0 C 14,4 C 0,0 km/h (0 Bft)
27.09.2013 17:43 13,9 C 94 % 1017,6 hPa 0,0 l/m 0,3 km/h (0 Bft) N-NO 22 12,9 C 14,4 C 2,3 km/h (1 Bft)
27.09.2013 17:48 14,0 C 94 % 1017,6 hPa 0,0 l/m 0,3 km/h (0 Bft) N-NW 337 13,0 C 14,4 C 0,0 km/h (0 Bft)
27.09.2013 17:53 13,9 C 94 % 1017,6 hPa 0,0 l/m 0,2 km/h (0 Bft) N 360 12,9 C 14,4 C 0,0 km/h (0 Bft)
27.09.2013 17:58 13,9 C 94 % 1017,6 hPa 0,0 l/m 0,0 km/h (0 Bft) NO 45 12,9 C 14,4 C 0,0 km/h (0 Bft)
27.09.2013 18:03 13,9 C 94 % 1017,3 hPa 0,0 l/m 0,0 km/h (0 Bft) NO 45 12,9 C 14,4 C 0,0 km/h (0 Bft)
27.09.2013 18:08 13,9 C 94 % 1017,3 hPa 0,0 l/m 0,0 km/h (0 Bft) O 90 12,9 C 14,4 C 0,0 km/h (0 Bft)
27.09.2013 18:13 14,0 C 94 % 1017,3 hPa 0,0 l/m 0,0 km/h (0 Bft) S-SW 202 13,0 C 14,4 C 0,0 km/h (0 Bft)
27.09.2013 18:18 14,0 C 94 % 1017,3 hPa 0,0 l/m 0,0 km/h (0 Bft) S 180 13,0 C 14,4 C 0,0 km/h (0 Bft)
27.09.2013 18:23 13,9 C 94 % 1017,3 hPa 0,0 l/m 0,0 km/h (0 Bft) O 90 12,9 C 14,4 C 0,0 km/h (0 Bft)
27.09.2013 18:28 13,9 C 94 % 1017,3 hPa 0,0 l/m 0,0 km/h (0 Bft) O 90 12,9 C 14,3 C 0,0 km/h (0 Bft)
27.09.2013 18:33 13,8 C 94 % 1017,3 hPa 0,0 l/m 0,0 km/h (0 Bft) NO 45 12,9 C 14,3 C 0,0 km/h (0 Bft)
27.09.2013 18:38 13,8 C 95 % 1017,3 hPa 0,0 l/m 0,0 km/h (0 Bft) NO 45 13,0 C 14,3 C 0,0 km/h (0 Bft)
27.09.2013 18:43 13,7 C 95 % 1017,5 hPa 0,0 l/m 0,0 km/h (0 Bft) O 90 12,9 C 14,2 C 0,0 km/h (0 Bft)
27.09.2013 18:48 13,7 C 95 % 1017,5 hPa 0,0 l/m 0,0 km/h (0 Bft) O-NO 67 12,9 C 14,2 C 0,0 km/h (0 Bft)
27.09.2013 18:53 13,7 C 95 % 1017,5 hPa 0,0 l/m 0,0 km/h (0 Bft) N 360 12,9 C 14,1 C 0,0 km/h (0 Bft)
27.09.2013 18:58 13,6 C 95 % 1017,5 hPa 0,0 l/m 0,0 km/h (0 Bft) N-NO 22 12,8 C 14,0 C 0,0 km/h (0 Bft)
27.09.2013 19:03 13,6 C 95 % 1017,2 hPa 0,0 l/m 0,0 km/h (0 Bft) NW 315 12,8 C 14,0 C 0,0 km/h (0 Bft)
27.09.2013 19:08 13,6 C 95 % 1017,2 hPa 0,0 l/m 0,0 km/h (0 Bft) N-NW 337 12,8 C 14,0 C 0,0 km/h (0 Bft)
27.09.2013 19:13 13,6 C 95 % 1017,2 hPa 0,0 l/m 0,0 km/h (0 Bft) NO 45 12,8 C 13,9 C 0,0 km/h (0 Bft)
27.09.2013 19:18 13,5 C 95 % 1017,2 hPa 0,0 l/m 0,0 km/h (0 Bft) S 180 12,7 C 13,9 C 0,0 km/h (0 Bft)
27.09.2013 19:23 13,5 C 95 % 1017,2 hPa 0,0 l/m 0,0 km/h (0 Bft) N 360 12,7 C 13,8 C 0,0 km/h (0 Bft)
27.09.2013 19:28 13,5 C 95 % 1017,2 hPa 0,0 l/m 0,2 km/h (0 Bft) N-NW 337 12,7 C 13,8 C 0,0 km/h (0 Bft)
27.09.2013 19:33 13,5 C 95 % 1017,2 hPa 0,0 l/m 0,2 km/h (0 Bft) N 360 12,7 C 13,7 C 0,0 km/h (0 Bft)
27.09.2013 19:35 13,5 C 95 % 1017,2 hPa 0,0 l/m 0,2 km/h (0 Bft) N 360 12,7 C 13,7 C 0,0 km/h (0 Bft)
27.09.2013 19:40 13,5 C 95 % 1017,2 hPa 0,0 l/m 0,0 km/h (0 Bft) W-NW 292 12,7 C 13,7 C 0,0 km/h (0 Bft)
27.09.2013 19:45 13,5 C 95 % 1017,4 hPa 0,0 l/m 0,0 km/h (0 Bft) O-NO 67 12,7 C 13,7 C 0,0 km/h (0 Bft)
27.09.2013 19:48 13,5 C 95 % 1017,4 hPa 0,0 l/m 0,0 km/h (0 Bft) N-NO 22 12,7 C 13,7 C 0,0 km/h (0 Bft)
27.09.2013 19:50 13,5 C 95 % 1017,4 hPa 0,0 l/m 0,0 km/h (0 Bft) N-NO 22 12,7 C 13,7 C 0,0 km/h (0 Bft)
27.09.2013 19:55 13,4 C 95 % 1017,4 hPa 0,0 l/m 0,0 km/h (0 Bft) N 360 12,6 C 13,7 C 0,0 km/h (0 Bft)
27.09.2013 20:00 13,4 C 95 % 1017,4 hPa 0,0 l/m 0,0 km/h (0 Bft) W-NW 292 12,6 C 13,7 C 0,0 km/h (0 Bft)
27.09.2013 20:05 13,5 C 95 % 1017,3 hPa 0,0 l/m 0,5 km/h (0 Bft) N-NW 337 12,7 C 13,7 C 0,0 km/h (0 Bft)
27.09.2013 20:10 13,4 C 95 % 1017,3 hPa 0,0 l/m 1,0 km/h (0 Bft) W-NW 292 12,6 C 13,7 C 0,0 km/h (0 Bft)
27.09.2013 20:15 13,4 C 95 % 1017,3 hPa 0,0 l/m 0,5 km/h (0 Bft) N 360 12,6 C 13,7 C 0,0 km/h (0 Bft)
27.09.2013 20:20 13,4 C 95 % 1017,3 hPa 0,0 l/m 0,3 km/h (0 Bft) O 90 12,6 C 13,7 C 1,8 km/h (1 Bft)
27.09.2013 20:25 13,4 C 95 % 1017,5 hPa 0,0 l/m 0,5 km/h (0 Bft) N 360 12,6 C 13,7 C 0,0 km/h (0 Bft)
27.09.2013 20:30 13,4 C 95 % 1017,5 hPa 0,0 l/m 0,8 km/h (0 Bft) N-NW 337 12,6 C 13,7 C 0,0 km/h (0 Bft)
27.09.2013 20:35 13,4 C 95 % 1017,5 hPa 0,0 l/m 0,5 km/h (0 Bft) W-SW 247 12,6 C 13,7 C 0,0 km/h (0 Bft)
27.09.2013 20:40 13,4 C 95 % 1017,5 hPa 0,0 l/m 0,2 km/h (0 Bft) W-NW 292 12,6 C 13,7 C 0,0 km/h (0 Bft)
27.09.2013 20:45 13,4 C 95 % 1017,6 hPa 0,0 l/m 0,2 km/h (0 Bft) NO 45 12,6 C 13,7 C 0,0 km/h (0 Bft)
27.09.2013 20:50 13,4 C 95 % 1017,6 hPa 0,0 l/m 0,0 km/h (0 Bft) O 90 12,6 C 13,7 C 0,0 km/h (0 Bft)
27.09.2013 20:55 13,4 C 95 % 1017,6 hPa 0,0 l/m 0,2 km/h (0 Bft) W-NW 292 12,6 C 13,7 C 2,4 km/h (1 Bft)
27.09.2013 21:00 13,4 C 95 % 1017,6 hPa 0,0 l/m 0,5 km/h (0 Bft) N-NW 337 12,6 C 13,7 C 4,0 km/h (1 Bft)
27.09.2013 21:05 13,3 C 95 % 1017,6 hPa 0,0 l/m 1,4 km/h (1 Bft) N-NO 22 12,5 C 13,7 C 0,0 km/h (0 Bft)
27.09.2013 21:10 13,3 C 95 % 1017,6 hPa 0,0 l/m 1,0 km/h (0 Bft) N-NW 337 12,5 C 13,6 C 0,0 km/h (0 Bft)
27.09.2013 21:15 13,2 C 95 % 1017,6 hPa 0,0 l/m 0,3 km/h (0 Bft) NW 315 12,4 C 13,6 C 0,0 km/h (0 Bft)
27.09.2013 21:20 13,2 C 95 % 1017,6 hPa 0,0 l/m 0,3 km/h (0 Bft) O-NO 67 12,4 C 13,5 C 0,0 km/h (0 Bft)
27.09.2013 21:25 13,2 C 95 % 1017,6 hPa 0,0 l/m 0,2 km/h (0 Bft) NW 315 12,4 C 13,5 C 0,0 km/h (0 Bft)
27.09.2013 21:30 13,2 C 95 % 1017,6 hPa 0,0 l/m 0,5 km/h (0 Bft) NW 315 12,4 C 13,5 C 1,8 km/h (1 Bft)
27.09.2013 21:35 13,2 C 95 % 1017,6 hPa 0,0 l/m 0,5 km/h (0 Bft) W-NW 292 12,4 C 13,5 C 0,0 km/h (0 Bft)
27.09.2013 21:40 13,1 C 95 % 1017,6 hPa 0,0 l/m 0,2 km/h (0 Bft) S-SW 202 12,3 C 13,4 C 0,0 km/h (0 Bft)
27.09.2013 21:45 13,1 C 95 % 1017,8 hPa 0,0 l/m 0,0 km/h (0 Bft) W-NW 292 12,3 C 13,4 C 0,0 km/h (0 Bft)
27.09.2013 21:50 13,1 C 95 % 1017,8 hPa 0,0 l/m 0,0 km/h (0 Bft) N-NW 337 12,3 C 13,4 C 0,0 km/h (0 Bft)
27.09.2013 21:55 13,0 C 95 % 1017,8 hPa 0,0 l/m 0,0 km/h (0 Bft) N 360 12,2 C 13,3 C 0,0 km/h (0 Bft)
27.09.2013 22:00 13,0 C 95 % 1017,8 hPa 0,0 l/m 0,0 km/h (0 Bft) W-NW 292 12,2 C 13,3 C 0,0 km/h (0 Bft)
27.09.2013 22:05 13,0 C 95 % 1017,6 hPa 0,0 l/m 0,0 km/h (0 Bft) NW 315 12,2 C 13,3 C 0,0 km/h (0 Bft)
27.09.2013 22:10 13,0 C 95 % 1017,6 hPa 0,0 l/m 0,0 km/h (0 Bft) NO 45 12,2 C 13,3 C 0,0 km/h (0 Bft)
27.09.2013 22:15 12,9 C 96 % 1017,6 hPa 0,0 l/m 0,0 km/h (0 Bft) N 360 12,3 C 13,2 C 0,0 km/h (0 Bft)
27.09.2013 22:20 12,9 C 96 % 1017,6 hPa 0,0 l/m 0,0 km/h (0 Bft) N 360 12,3 C 13,2 C 0,0 km/h (0 Bft)
27.09.2013 22:25 12,8 C 96 % 1017,4 hPa 0,0 l/m 0,0 km/h (0 Bft) N-NO 22 12,2 C 13,1 C 0,0 km/h (0 Bft)
27.09.2013 22:30 12,8 C 96 % 1017,4 hPa 0,0 l/m 0,0 km/h (0 Bft) W 270 12,2 C 13,2 C 0,0 km/h (0 Bft)
27.09.2013 22:35 12,9 C 96 % 1017,4 hPa 0,0 l/m 0,0 km/h (0 Bft) W-NW 292 12,3 C 13,2 C 0,0 km/h (0 Bft)
27.09.2013 22:40 12,9 C 96 % 1017,4 hPa 0,0 l/m 0,0 km/h (0 Bft) N-NW 337 12,3 C 13,3 C 0,0 km/h (0 Bft)
27.09.2013 22:45 13,0 C 95 % 1017,4 hPa 0,0 l/m 0,6 km/h (0 Bft) W-NW 292 12,2 C 13,3 C 0,0 km/h (0 Bft)
27.09.2013 22:50 13,0 C 95 % 1017,4 hPa 0,0 l/m 1,0 km/h (0 Bft) NW 315 12,2 C 13,3 C 2,4 km/h (1 Bft)
27.09.2013 22:55 13,0 C 95 % 1017,4 hPa 0,0 l/m 1,1 km/h (1 Bft) W-NW 292 12,2 C 13,3 C 0,0 km/h (0 Bft)
27.09.2013 23:00 13,0 C 95 % 1017,4 hPa 0,0 l/m 1,0 km/h (0 Bft) W-NW 292 12,2 C 13,3 C 0,0 km/h (0 Bft)
27.09.2013 23:05 13,0 C 95 % 1017,2 hPa 0,0 l/m 1,1 km/h (1 Bft) N 360 12,2 C 13,3 C 2,4 km/h (1 Bft)
27.09.2013 23:10 13,0 C 95 % 1017,2 hPa 0,0 l/m 1,4 km/h (1 Bft) W-NW 292 12,2 C 13,3 C 2,9 km/h (1 Bft)
27.09.2013 23:15 13,0 C 95 % 1017,2 hPa 0,0 l/m 1,3 km/h (1 Bft) NW 315 12,2 C 13,3 C 0,0 km/h (0 Bft)
27.09.2013 23:20 13,0 C 95 % 1017,2 hPa 0,0 l/m 1,4 km/h (1 Bft) N-NW 337 12,2 C 13,3 C 0,0 km/h (0 Bft)
27.09.2013 23:25 13,0 C 95 % 1017,2 hPa 0,0 l/m 0,8 km/h (0 Bft) NW 315 12,2 C 13,3 C 0,0 km/h (0 Bft)
27.09.2013 23:30 13,0 C 95 % 1017,2 hPa 0,0 l/m 0,6 km/h (0 Bft) W-NW 292 12,2 C 13,3 C 2,1 km/h (1 Bft)
27.09.2013 23:35 13,0 C 95 % 1017,2 hPa 0,0 l/m 0,6 km/h (0 Bft) N-NW 337 12,2 C 13,3 C 2,3 km/h (1 Bft)
27.09.2013 23:40 13,0 C 95 % 1017,2 hPa 0,0 l/m 0,6 km/h (0 Bft) NW 315 12,2 C 13,3 C 0,0 km/h (0 Bft)
27.09.2013 23:45 13,0 C 95 % 1017,0 hPa 0,0 l/m 0,8 km/h (0 Bft) W 270 12,2 C 13,3 C 0,0 km/h (0 Bft)
27.09.2013 23:50 13,1 C 95 % 1017,0 hPa 0,0 l/m 0,5 km/h (0 Bft) N-NW 337 12,3 C 13,3 C 0,0 km/h (0 Bft)
27.09.2013 23:55 13,1 C 95 % 1017,0 hPa 0,0 l/m 0,2 km/h (0 Bft) NO 45 12,3 C 13,3 C 0,0 km/h (0 Bft)
_ Min-Zeit 07:38 14:28 23:55 - 22:40 - - 07:38 07:38 23:55
Minimum _ 11,2 C 90 % 1017,0 hPa - 0,0 km/h (0 Bft) - - 10,6 C 11,3 C 0,0 km/h (0 Bft)
_ Max-Zeit 11:58 22:40 01:18 02:43 13:58 - - 11:58 12:08 12:13
Maximum _ 17,4 C 96 % 1019,1 hPa 1,4 l/m 5,8 km/h
W-SW (2 Bft)
- - 16,3 C 19,6 C 8,2 km/h
S-SO (2 Bft)
Durchschnitt _ 13,5 C 94 % 1017,9 hPa #5,5 l/m 0,8 km/h (0 Bft) N - 12,6 C 14,0 C 0,9 km/h (0 Bft)